Details From SCAR - CHACALLUTA
To SCDA - DIEGO ARACENA INTL
Flight Number -
Tags generated
Created
Modified
Stats Distance 132 nm / 244 km
Max Altitude 13,900 ft / 4,237 m
Waypoints 3
Social Downloads 6
Likes 0
Share VATSIM

Download

Looking for another format? Having issues loading an existing format? Contact us
Advertisement - Login to hide

Notes

Basic altitude profile: - Ascent Rate: 2500ft/min - Ascent Speed: 250kts - Cruise Altitude: 35000ft - Cruise Speed: 420kts - Descent Rate: 1500ft/min - Descent Speed: 250kts

Route

SCAR CAMAR SCDA

ID Type Via Altitude Latitude Longitude Leg Dist Tot Dist Heading (true) Name
O SCAR APT - 0 ft / 0 m -18.34853˚ -70.33874˚ - 0 nm - CHACALLUTA
CAMAR FIX - 13,900 ft / 4,237 m -19.37444˚ -70.25972˚ 61 nm 61 nm 176° / 176° -
O SCDA APT - 0 ft / 0 m -20.53523˚ -70.18128˚ 69 nm 131 nm 176° / 176° DIEGO ARACENA INTL

Altitude Profile

Advertisement - Login to hide

SCAR

Details ICAO SCAR (ARI)
Name CHACALLUTA
Region Chile
Timezone America/Santiago (UTC-4.0)
Stats Elevation 167 ft / 51 m (AMSL)
Location -18.348530° -70.338741°
Runways 1
Magnetic Variation 5.572° W

METAR

SCAR 241900Z 22010KT 190V250 CAVOK 20/13 Q1014

Decode

TAF

TAF SCAR 241627Z 2418/2518 21011KT CAVOK TX20/2418Z TN17/2510Z BECMG 2500/2502 17004KT OVC025 BECMG 2506/2508 30004KT BECMG 2516/2518 22010KT CAVOK

Decode

Departure Runways

ID Width Length Bearing (true) Bearing (mag) Surface Threshold Offset Overrun Length
02 148 ft / 45 m 7,184 ft / 2,190 m 19.17° 24.74° Asphalt 0 ft / 0 m 2,075 ft / 632 m
20 148 ft / 45 m 7,184 ft / 2,190 m 199.17° 204.74° Asphalt 0 ft / 0 m 197 ft / 60 m

SCDA

Details ICAO SCDA (IQQ)
Name DIEGO ARACENA INTL
Region Chile
Timezone America/Santiago (UTC-4.0)
Stats Elevation 155 ft / 47 m (AMSL)
Location -20.535228° -70.181279°
Runways 1
Magnetic Variation 4.946° W

METAR

SCDA 241900Z 23013KT CAVOK 18/13 Q1014

Decode

TAF

TAF SCDA 241627Z 2418/2518 22015KT CAVOK TX19/2418Z TN15/2506Z BECMG 2421/2423 17008KT BKN025 BECMG 2502/2504 13004KT BECMG 2508/ 2510 22004KT BECMG 2516/2518 22015KT CAVOK

Decode

Destination Runways

ID Width Length Bearing (true) Bearing (mag) Surface Threshold Offset Overrun Length
18 148 ft / 45 m 11,048 ft / 3,368 m 182.87° 187.82° Asphalt 0 ft / 0 m 200 ft / 61 m
36 148 ft / 45 m 11,048 ft / 3,368 m 2.87° 7.82° Asphalt 0 ft / 0 m 590 ft / 180 m

Approach Navaids

Runway Type Ident Frequency Range Bearing (true) Bearing (mag) Slope Elevation
18 Localiser IIQQ 109.90 MHz 18 nm / 33 km 182.85° 187.80° - 174 ft / 53 m (AMSL)
18 Glidescope IIQQ 109.90 MHz 10 nm / 19 km 182.87° 187.82° 3.20° 105 ft / 32 m (AMSL)
18 DME IIQQ 109.90 MHz 18 nm / 33 km - - - 105 ft / 32 m (AMSL)

Popular Alternatives